QFA514 YMHB-NZQN

Flight info

Callsign QFA514
Flight time 2h 9m
Altitude 33000
Route LAVOP DCT PECOB DCT BEBOB DCT ADKOS DCT BEVKO DCT IGNET DCT UBDAM
Aircraft B739/M-SDE2E3FGHIRWXY/LB1

Departure

Time 2026-04-25 02:30
Airport Hobart International Airport (YMHB)

Arrival

Time 2026-04-25 04:39
Airport Queenstown Airport (NZQN)
Time Latitude Longitude Altitude Speed Heading
2026-04-25 01:54 -42.83710 147.50667 48 ft 0 kts 225°
2026-04-25 02:12 -42.83704 147.50676 21 ft 4 kts 230°
2026-04-25 02:12 -42.83691 147.50706 21 ft 4 kts 259°
2026-04-25 02:12 -42.83692 147.50740 21 ft 4 kts 303°
2026-04-25 02:13 -42.83700 147.50753 21 ft 1 kts 315°
2026-04-25 02:13 -42.83700 147.50754 21 ft 0 kts 315°
2026-04-25 02:18 -42.83696 147.50748 21 ft 2 kts 315°
2026-04-25 02:18 -42.83681 147.50728 21 ft 4 kts 315°
2026-04-25 02:19 -42.83655 147.50693 22 ft 6 kts 316°
2026-04-25 02:19 -42.83623 147.50656 21 ft 6 kts 331°
2026-04-25 02:19 -42.83588 147.50673 21 ft 5 kts 48°
2026-04-25 02:19 -42.83569 147.50707 21 ft 4 kts 66°
2026-04-25 02:20 -42.83575 147.50748 23 ft 4 kts 117°
2026-04-25 02:20 -42.83594 147.50781 21 ft 4 kts 133°
2026-04-25 02:20 -42.83619 147.50816 23 ft 6 kts 136°
2026-04-25 02:20 -42.83656 147.50865 22 ft 9 kts 136°
2026-04-25 02:21 -42.83704 147.50929 21 ft 11 kts 135°
2026-04-25 02:21 -42.83756 147.50999 23 ft 11 kts 135°
2026-04-25 02:21 -42.83809 147.51071 23 ft 11 kts 135°
2026-04-25 02:21 -42.83858 147.51147 21 ft 10 kts 116°
2026-04-25 02:22 -42.83836 147.51233 21 ft 10 kts 44°
2026-04-25 02:22 -42.83814 147.51262 22 ft 0 kts 44°
2026-04-25 02:22 -42.83813 147.51263 22 ft 0 kts 44°
2026-04-25 02:22 -42.83811 147.51265 22 ft 1 kts 44°
2026-04-25 02:23 -42.83809 147.51268 21 ft 0 kts 44°
2026-04-25 02:23 -42.83808 147.51269 21 ft 0 kts 44°
2026-04-25 02:23 -42.83806 147.51271 21 ft 1 kts 44°
2026-04-25 02:24 -42.83802 147.51277 22 ft 1 kts 43°
2026-04-25 02:24 -42.83792 147.51290 21 ft 3 kts 43°
2026-04-25 02:24 -42.83780 147.51305 21 ft 4 kts 43°
2026-04-25 02:24 -42.83762 147.51369 21 ft 7 kts 104°
2026-04-25 02:25 -42.83795 147.51424 21 ft 9 kts 137°
2026-04-25 02:25 -42.83844 147.51489 22 ft 11 kts 135°
2026-04-25 02:25 -42.83904 147.51570 22 ft 13 kts 135°
2026-04-25 02:25 -42.83973 147.51663 22 ft 15 kts 135°
2026-04-25 02:26 -42.84025 147.51734 22 ft 16 kts 135°
2026-04-25 02:26 -42.84139 147.51889 21 ft 19 kts 135°
2026-04-25 02:26 -42.84234 147.52019 21 ft 20 kts 135°
2026-04-25 02:26 -42.84302 147.52111 23 ft 21 kts 135°
2026-04-25 02:27 -42.84412 147.52259 23 ft 23 kts 135°
2026-04-25 02:27 -42.84474 147.52311 21 ft 5 kts 173°
2026-04-25 02:27 -42.84514 147.52318 21 ft 7 kts 165°
2026-04-25 02:27 -42.84564 147.52345 22 ft 8 kts 147°
2026-04-25 02:28 -42.84573 147.52426 21 ft 8 kts 47°
2026-04-25 02:28 -42.84546 147.52436 23 ft 5 kts 348°
2026-04-25 02:28 -42.84532 147.52422 21 ft 0 kts 315°
2026-04-25 02:29 -42.84531 147.52420 21 ft 3 kts 315°
2026-04-25 02:29 -42.84357 147.52187 23 ft 71 kts 315°
2026-04-25 02:29 -42.83855 147.51500 21 ft 133 kts 315°
2026-04-25 02:29 -42.83075 147.50448 128 ft 172 kts 317°
2026-04-25 02:30 -42.82282 147.49410 1020 ft 148 kts 318°
2026-04-25 02:30 -42.81369 147.48698 1364 ft 160 kts 340°
2026-04-25 02:30 -42.80177 147.48545 1346 ft 179 kts
2026-04-25 02:30 -42.79009 147.49095 1598 ft 178 kts 29°
2026-04-25 02:31 -42.78245 147.50482 2063 ft 193 kts 70°
2026-04-25 02:31 -42.78201 147.52300 2727 ft 199 kts 98°
2026-04-25 02:31 -42.78517 147.54218 3115 ft 218 kts 102°
2026-04-25 02:31 -42.78852 147.56330 3435 ft 234 kts 104°
2026-04-25 02:32 -42.79474 147.58372 4028 ft 231 kts 128°
2026-04-25 02:32 -42.80529 147.59968 4591 ft 233 kts 139°
2026-04-25 02:32 -42.81805 147.61452 4846 ft 249 kts 151°
2026-04-25 02:32 -42.83363 147.62634 5103 ft 261 kts 167°
2026-04-25 02:33 -42.85142 147.62977 5382 ft 257 kts 189°
2026-04-25 02:33 -42.86914 147.62843 5598 ft 262 kts 191°
2026-04-25 02:33 -42.88779 147.62663 5508 ft 270 kts 190°
2026-04-25 02:33 -42.90690 147.62484 5928 ft 279 kts 190°
2026-04-25 02:34 -42.92609 147.62320 6739 ft 280 kts 189°
2026-04-25 02:34 -42.94578 147.62159 7387 ft 287 kts 189°
2026-04-25 02:34 -42.96593 147.61998 8105 ft 290 kts 188°
2026-04-25 02:34 -42.98641 147.62038 8768 ft 302 kts 171°
2026-04-25 02:35 -43.00555 147.63303 9488 ft 311 kts 139°
2026-04-25 02:35 -43.01813 147.65639 10202 ft 312 kts 108°
2026-04-25 02:35 -43.02234 147.68577 10644 ft 322 kts 93°
2026-04-25 02:35 -43.02422 147.71720 10813 ft 344 kts 91°
2026-04-25 02:36 -43.02583 147.75102 10973 ft 365 kts 91°
2026-04-25 02:36 -43.02745 147.78610 11255 ft 380 kts 91°
2026-04-25 02:36 -43.02921 147.82256 11766 ft 387 kts 91°
2026-04-25 02:36 -43.03110 147.85973 12307 ft 394 kts 91°
2026-04-25 02:37 -43.03307 147.89708 12917 ft 398 kts 91°
2026-04-25 02:37 -43.03513 147.93514 13477 ft 404 kts 91°
2026-04-25 02:37 -43.03723 147.97384 14050 ft 409 kts 91°
2026-04-25 02:37 -43.03934 148.01252 14600 ft 412 kts 91°
2026-04-25 02:38 -43.04148 148.05167 15151 ft 416 kts 91°
2026-04-25 02:38 -43.04365 148.09161 15578 ft 423 kts 91°
2026-04-25 02:38 -43.04582 148.13200 16092 ft 427 kts 91°
2026-04-25 02:38 -43.04801 148.17269 16677 ft 429 kts 91°
2026-04-25 02:39 -43.05020 148.21373 17210 ft 433 kts 91°
2026-04-25 02:39 -43.05235 148.25451 17692 ft 437 kts 91°
2026-04-25 02:39 -43.05455 148.29629 18197 ft 441 kts 91°
2026-04-25 02:39 -43.05673 148.33831 18681 ft 445 kts 91°
2026-04-25 02:40 -43.05893 148.38076 19155 ft 447 kts 91°
2026-04-25 02:40 -43.06111 148.42307 19633 ft 450 kts 91°
2026-04-25 02:40 -43.06330 148.46605 20121 ft 452 kts 91°
2026-04-25 02:40 -43.06546 148.50863 20597 ft 454 kts 91°
2026-04-25 02:41 -43.06763 148.55185 21059 ft 457 kts 92°
2026-04-25 02:41 -43.06910 148.58123 21356 ft 459 kts 92°
2026-04-25 02:41 -43.07197 148.63934 21927 ft 462 kts 92°
2026-04-25 02:41 -43.07413 148.68326 22450 ft 462 kts 92°
2026-04-25 02:42 -43.07626 148.72690 22906 ft 465 kts 92°
2026-04-25 02:42 -43.07841 148.77142 23302 ft 468 kts 92°
2026-04-25 02:42 -43.08054 148.81601 23704 ft 471 kts 92°
2026-04-25 02:42 -43.08265 148.86044 24080 ft 474 kts 92°
2026-04-25 02:43 -43.08477 148.90551 24443 ft 476 kts 92°
2026-04-25 02:43 -43.08690 148.95095 24811 ft 478 kts 92°
2026-04-25 02:43 -43.08901 148.99653 25155 ft 480 kts 92°
2026-04-25 02:43 -43.09109 149.04177 25496 ft 482 kts 92°
2026-04-25 02:44 -43.09318 149.08777 25828 ft 485 kts 92°
2026-04-25 02:44 -43.09527 149.13419 26163 ft 487 kts 92°
2026-04-25 02:44 -43.09735 149.18058 26493 ft 489 kts 92°
2026-04-25 02:44 -43.09940 149.22683 26811 ft 491 kts 92°
2026-04-25 02:45 -43.10146 149.27377 27024 ft 497 kts 92°
2026-04-25 02:45 -43.10353 149.32152 27113 ft 504 kts 92°
2026-04-25 02:45 -43.10558 149.36924 27215 ft 510 kts 92°
2026-04-25 02:45 -43.10766 149.41805 27388 ft 514 kts 92°
2026-04-25 02:46 -43.10973 149.46706 27712 ft 514 kts 92°
2026-04-25 02:46 -43.11178 149.51595 28209 ft 511 kts 92°
2026-04-25 02:46 -43.11378 149.56427 28696 ft 508 kts 92°
2026-04-25 02:46 -43.11575 149.61232 29094 ft 508 kts 92°
2026-04-25 02:47 -43.11771 149.66058 29439 ft 509 kts 92°
2026-04-25 02:47 -43.11965 149.70902 29828 ft 508 kts 92°
2026-04-25 02:47 -43.12157 149.75748 30263 ft 507 kts 92°
2026-04-25 02:47 -43.12346 149.80582 30631 ft 506 kts 92°
2026-04-25 02:48 -43.12530 149.85314 30927 ft 506 kts 92°
2026-04-25 02:48 -43.12715 149.90142 31197 ft 507 kts 92°
2026-04-25 02:48 -43.12899 149.94988 31501 ft 506 kts 92°
2026-04-25 02:48 -43.13078 149.99747 31815 ft 506 kts 92°
2026-04-25 02:49 -43.13256 150.04550 32122 ft 505 kts 92°
2026-04-25 02:49 -43.13433 150.09386 32394 ft 505 kts 92°
2026-04-25 02:49 -43.13609 150.14213 32674 ft 505 kts 92°
2026-04-25 02:49 -43.13781 150.19025 32961 ft 505 kts 92°
2026-04-25 02:50 -43.13949 150.23769 33236 ft 505 kts 92°
2026-04-25 02:50 -43.14285 150.33409 33265 ft 506 kts 92°
2026-04-25 02:51 -43.14610 150.42987 33248 ft 500 kts 92°
2026-04-25 02:51 -43.14926 150.52506 33257 ft 499 kts 92°
2026-04-25 02:52 -43.15231 150.61949 33251 ft 498 kts 92°
2026-04-25 02:52 -43.15530 150.71464 33261 ft 498 kts 92°
2026-04-25 02:53 -43.15821 150.80931 33263 ft 499 kts 92°
2026-04-25 02:53 -43.16107 150.90487 33270 ft 501 kts 92°
2026-04-25 02:54 -43.16952 150.99908 33283 ft 501 kts 102°
2026-04-25 02:54 -43.18437 151.09281 33271 ft 503 kts 103°
2026-04-25 02:55 -43.19939 151.18634 33265 ft 504 kts 103°
2026-04-25 02:55 -43.21391 151.28081 33268 ft 505 kts 102°
2026-04-25 02:56 -43.22789 151.37464 33257 ft 504 kts 102°
2026-04-25 02:56 -43.24178 151.46899 33264 ft 503 kts 102°
2026-04-25 02:57 -43.25548 151.56246 33264 ft 501 kts 102°
2026-04-25 02:57 -43.26920 151.65644 33273 ft 500 kts 102°
2026-04-25 02:58 -43.28272 151.74951 33270 ft 499 kts 102°
2026-04-25 02:58 -43.29623 151.84314 33268 ft 498 kts 102°
2026-04-25 02:59 -43.30958 151.93615 33266 ft 498 kts 102°
2026-04-25 02:59 -43.32294 152.02988 33277 ft 499 kts 102°
2026-04-25 03:00 -43.33624 152.12375 33283 ft 500 kts 102°
2026-04-25 03:00 -43.34942 152.21732 33274 ft 501 kts 102°
2026-04-25 03:01 -43.36260 152.31155 33283 ft 502 kts 102°
2026-04-25 03:01 -43.37565 152.40539 33274 ft 503 kts 102°
2026-04-25 03:02 -43.38874 152.50014 33270 ft 504 kts 102°
2026-04-25 03:02 -43.40178 152.59515 33278 ft 504 kts 101°
2026-04-25 03:03 -43.41469 152.68980 33281 ft 505 kts 101°
2026-04-25 03:03 -43.42753 152.78452 33279 ft 505 kts 101°
2026-04-25 03:04 -43.44035 152.87974 33280 ft 505 kts 101°
2026-04-25 03:04 -43.45299 152.97425 33292 ft 504 kts 101°
2026-04-25 03:05 -43.47190 153.11684 33281 ft 504 kts 101°
2026-04-25 03:05 -43.48434 153.21143 33279 ft 504 kts 101°
2026-04-25 03:06 -43.49678 153.30666 33289 ft 504 kts 101°
2026-04-25 03:06 -43.50908 153.40139 33287 ft 504 kts 101°
2026-04-25 03:07 -43.52136 153.49670 33289 ft 504 kts 101°
2026-04-25 03:07 -43.53351 153.59159 33288 ft 504 kts 101°
2026-04-25 03:08 -43.54558 153.68652 33291 ft 504 kts 101°
2026-04-25 03:08 -43.55762 153.78190 33288 ft 504 kts 101°
2026-04-25 03:09 -43.56354 153.82904 33404 ft 503 kts 101°
2026-04-25 03:09 -43.56952 153.87683 33593 ft 505 kts 101°
2026-04-25 03:09 -43.57549 153.92466 33848 ft 505 kts 101°
2026-04-25 03:09 -43.58144 153.97257 34180 ft 504 kts 101°
2026-04-25 03:10 -43.58729 154.01976 34458 ft 502 kts 101°
2026-04-25 03:10 -43.59315 154.06730 34693 ft 502 kts 101°
2026-04-25 03:10 -43.59901 154.11495 34903 ft 502 kts 100°
2026-04-25 03:10 -43.60484 154.16253 35110 ft 502 kts 100°
2026-04-25 03:11 -43.61058 154.20956 35293 ft 502 kts 100°
2026-04-25 03:11 -43.61640 154.25738 35275 ft 504 kts 100°
2026-04-25 03:11 -43.62787 154.35213 35289 ft 501 kts 100°
2026-04-25 03:12 -43.63735 154.43107 35298 ft 499 kts 100°
2026-04-25 03:12 -43.64867 154.52590 35298 ft 498 kts 100°
2026-04-25 03:13 -43.65982 154.61992 35292 ft 497 kts 100°
2026-04-25 03:13 -43.67086 154.71377 35303 ft 497 kts 100°
2026-04-25 03:14 -43.68192 154.80846 35306 ft 497 kts 100°
2026-04-25 03:14 -43.69282 154.90249 35303 ft 498 kts 100°
2026-04-25 03:15 -43.70374 154.99738 35306 ft 500 kts 99°
2026-04-25 03:15 -43.71456 155.09206 35306 ft 501 kts 99°
2026-04-25 03:16 -43.72536 155.18738 35303 ft 502 kts 99°
2026-04-25 03:16 -43.73607 155.28260 35309 ft 502 kts 99°
2026-04-25 03:17 -43.74668 155.37773 35311 ft 502 kts 99°
2026-04-25 03:17 -43.75729 155.47355 35309 ft 502 kts 99°
2026-04-25 03:18 -43.76774 155.56867 35308 ft 502 kts 99°
2026-04-25 03:18 -43.77821 155.66471 35307 ft 502 kts 99°
2026-04-25 03:19 -43.78850 155.75990 35308 ft 501 kts 99°
2026-04-25 03:19 -43.79868 155.85482 35320 ft 501 kts 99°
2026-04-25 03:20 -43.80886 155.95055 35316 ft 500 kts 99°
2026-04-25 03:20 -43.81887 156.04546 35311 ft 500 kts 99°
2026-04-25 03:21 -43.82889 156.14115 35322 ft 500 kts 99°
2026-04-25 03:21 -43.83872 156.23592 35315 ft 500 kts 98°
2026-04-25 03:22 -43.84857 156.33162 35307 ft 500 kts 98°
2026-04-25 03:22 -43.85825 156.42648 35314 ft 500 kts 98°
2026-04-25 03:23 -43.86793 156.52217 35313 ft 500 kts 98°
2026-04-25 03:23 -43.87749 156.61743 35317 ft 500 kts 98°
2026-04-25 03:24 -43.88694 156.71241 35323 ft 500 kts 98°
2026-04-25 03:24 -43.89637 156.80810 35320 ft 500 kts 98°
2026-04-25 03:25 -43.90567 156.90327 35321 ft 500 kts 98°
2026-04-25 03:25 -43.91497 156.99924 35327 ft 500 kts 98°
2026-04-25 03:26 -43.92413 157.09463 35316 ft 500 kts 98°
2026-04-25 03:26 -43.93326 157.19064 35320 ft 501 kts 98°
2026-04-25 03:27 -43.94226 157.28612 35325 ft 501 kts 98°
2026-04-25 03:27 -43.95118 157.38163 35324 ft 501 kts 98°
2026-04-25 03:28 -43.96007 157.47768 35315 ft 501 kts 97°
2026-04-25 03:28 -43.96889 157.57388 35322 ft 501 kts 97°
2026-04-25 03:29 -43.97758 157.66952 35323 ft 501 kts 97°
2026-04-25 03:29 -43.98620 157.76535 35322 ft 501 kts 97°
2026-04-25 03:30 -43.99479 157.86176 35320 ft 501 kts 97°
2026-04-25 03:30 -44.00324 157.95748 35339 ft 505 kts 97°
2026-04-25 03:31 -44.01180 158.05540 35320 ft 510 kts 97°
2026-04-25 03:31 -44.02027 158.15340 35331 ft 513 kts 97°
2026-04-25 03:32 -44.02870 158.25181 35323 ft 515 kts 97°
2026-04-25 03:32 -44.03711 158.35112 35323 ft 515 kts 97°
2026-04-25 03:33 -44.04535 158.44938 35331 ft 515 kts 97°
2026-04-25 03:33 -44.05358 158.54860 35322 ft 515 kts 96°
2026-04-25 03:34 -44.06167 158.64726 35319 ft 514 kts 96°
2026-04-25 03:34 -44.06970 158.74618 35330 ft 514 kts 96°
2026-04-25 03:35 -44.07761 158.84463 35331 ft 513 kts 96°
2026-04-25 03:35 -44.08541 158.94289 35321 ft 513 kts 96°
2026-04-25 03:36 -44.09319 159.04188 35317 ft 513 kts 96°
2026-04-25 03:36 -44.10081 159.14003 35328 ft 513 kts 96°
2026-04-25 03:37 -44.10842 159.23914 35328 ft 513 kts 96°
2026-04-25 03:37 -44.11592 159.33794 35330 ft 513 kts 96°
2026-04-25 03:38 -44.12331 159.43647 35328 ft 513 kts 96°
2026-04-25 03:38 -44.13062 159.53515 35323 ft 513 kts 96°
2026-04-25 03:39 -44.13786 159.63390 35319 ft 514 kts 96°
2026-04-25 03:39 -44.14505 159.73326 35319 ft 514 kts 95°
2026-04-25 03:40 -44.15209 159.83179 35318 ft 513 kts 95°
2026-04-25 03:40 -44.15908 159.93068 35323 ft 512 kts 95°
2026-04-25 03:41 -44.16595 160.02920 35311 ft 512 kts 95°
2026-04-25 03:41 -44.17275 160.12802 35324 ft 512 kts 95°
2026-04-25 03:42 -44.17945 160.22650 35327 ft 512 kts 95°
2026-04-25 03:42 -44.18608 160.32535 35318 ft 512 kts 95°
2026-04-25 03:43 -44.19266 160.42470 35317 ft 512 kts 95°
2026-04-25 03:43 -44.19911 160.52335 35317 ft 512 kts 95°
2026-04-25 03:44 -44.20547 160.62204 35325 ft 512 kts 95°
2026-04-25 03:44 -44.21178 160.72120 35333 ft 512 kts 95°
2026-04-25 03:45 -44.21797 160.81991 35324 ft 513 kts 95°
2026-04-25 03:45 -44.22408 160.91872 35327 ft 513 kts 95°
2026-04-25 03:46 -44.23013 161.01792 35327 ft 513 kts 95°
2026-04-25 03:46 -44.23606 161.11657 35318 ft 513 kts 95°
2026-04-25 03:47 -44.24195 161.21607 35315 ft 513 kts 94°
2026-04-25 03:47 -44.24772 161.31486 35318 ft 513 kts 94°
2026-04-25 03:48 -44.25342 161.41415 35322 ft 513 kts 94°
2026-04-25 03:48 -44.25901 161.51291 35324 ft 513 kts 94°
2026-04-25 03:49 -44.26455 161.61229 35318 ft 512 kts 94°
2026-04-25 03:49 -44.26998 161.71131 35319 ft 511 kts 94°
2026-04-25 03:50 -44.27533 161.81039 35313 ft 511 kts 94°
2026-04-25 03:50 -44.28055 161.90881 35312 ft 510 kts 94°
2026-04-25 03:51 -44.28569 162.00723 35315 ft 510 kts 94°
2026-04-25 03:51 -44.29077 162.10603 35312 ft 509 kts 94°
2026-04-25 03:52 -44.29577 162.20501 35327 ft 509 kts 94°
2026-04-25 03:52 -44.30064 162.30314 35327 ft 510 kts 94°
2026-04-25 03:53 -44.30547 162.40218 35319 ft 510 kts 94°
2026-04-25 03:53 -44.31018 162.50066 35316 ft 510 kts 94°
2026-04-25 03:54 -44.31484 162.59972 35325 ft 510 kts 93°
2026-04-25 03:54 -44.31938 162.69822 35323 ft 510 kts 93°
2026-04-25 03:55 -44.32387 162.79734 35310 ft 510 kts 93°
2026-04-25 03:55 -44.32824 162.89578 35314 ft 510 kts 93°
2026-04-25 03:56 -44.33255 162.99478 35328 ft 510 kts 93°
2026-04-25 03:56 -44.33676 163.09327 35321 ft 510 kts 93°
2026-04-25 03:57 -44.34090 163.19234 35315 ft 510 kts 93°
2026-04-25 03:57 -44.34495 163.29134 35316 ft 510 kts 93°
2026-04-25 03:58 -44.34890 163.38988 35315 ft 509 kts 93°
2026-04-25 03:58 -44.35278 163.48885 35315 ft 508 kts 93°
2026-04-25 03:59 -44.35654 163.58701 35313 ft 507 kts 93°
2026-04-25 03:59 -44.36024 163.68579 35310 ft 507 kts 93°
2026-04-25 04:00 -44.36383 163.78391 35319 ft 507 kts 93°
2026-04-25 04:00 -44.36733 163.88177 35319 ft 507 kts 93°
2026-04-25 04:01 -44.37077 163.98040 35308 ft 507 kts 93°
2026-04-25 04:01 -44.37411 164.07837 35313 ft 507 kts 93°
2026-04-25 04:02 -44.37684 164.16050 35312 ft 507 kts 93°
2026-04-25 04:02 -44.38057 164.27567 35308 ft 507 kts 92°
2026-04-25 04:03 -44.38366 164.37393 35308 ft 507 kts 92°
2026-04-25 04:03 -44.38667 164.47238 35310 ft 507 kts 92°
2026-04-25 04:04 -44.38913 164.55521 35314 ft 508 kts 92°
2026-04-25 04:04 -44.39198 164.65340 35307 ft 508 kts 92°
2026-04-25 04:05 -44.39476 164.75228 35306 ft 507 kts 92°
2026-04-25 04:05 -44.39744 164.85041 35308 ft 507 kts 92°
2026-04-25 04:06 -44.40005 164.94930 35310 ft 507 kts 92°
2026-04-25 04:06 -44.40256 165.04766 35307 ft 507 kts 92°
2026-04-25 04:07 -44.40500 165.14642 35309 ft 506 kts 92°
2026-04-25 04:07 -44.40733 165.24441 35314 ft 505 kts 92°
2026-04-25 04:08 -44.40959 165.34290 35314 ft 505 kts 92°
2026-04-25 04:08 -44.41175 165.44073 35318 ft 504 kts 92°
2026-04-25 04:09 -44.41385 165.53920 35306 ft 504 kts 92°
2026-04-25 04:09 -44.41583 165.63676 35322 ft 504 kts 92°
2026-04-25 04:10 -44.41775 165.73470 35313 ft 505 kts 92°
2026-04-25 04:10 -44.41974 165.83276 35312 ft 504 kts 94°
2026-04-25 04:11 -44.43261 165.92840 35328 ft 502 kts 107°
2026-04-25 04:11 -44.44220 165.97527 35310 ft 502 kts 108°
2026-04-25 04:12 -44.46163 166.06950 35311 ft 503 kts 108°
2026-04-25 04:12 -44.48036 166.16359 35310 ft 503 kts 107°
2026-04-25 04:13 -44.49879 166.25856 35307 ft 503 kts 107°
2026-04-25 04:13 -44.51694 166.35289 35317 ft 504 kts 107°
2026-04-25 04:14 -44.53507 166.44737 35310 ft 504 kts 107°
2026-04-25 04:14 -44.55325 166.54246 35307 ft 504 kts 107°
2026-04-25 04:15 -44.57138 166.63777 35308 ft 504 kts 107°
2026-04-25 04:15 -44.58930 166.73245 35314 ft 504 kts 107°
2026-04-25 04:16 -44.60717 166.82731 35306 ft 505 kts 107°
2026-04-25 04:16 -44.61763 166.92445 35311 ft 507 kts 86°
2026-04-25 04:16 -44.61520 166.97391 35197 ft 508 kts 86°
2026-04-25 04:17 -44.61257 167.02396 34618 ft 509 kts 86°
2026-04-25 04:17 -44.61016 167.07291 33600 ft 512 kts 86°
2026-04-25 04:17 -44.60799 167.12311 32557 ft 514 kts 87°
2026-04-25 04:17 -44.60602 167.17320 31956 ft 508 kts 87°
2026-04-25 04:18 -44.60418 167.22183 31369 ft 502 kts 87°
2026-04-25 04:18 -44.60232 167.27076 30758 ft 497 kts 87°
2026-04-25 04:18 -44.60044 167.31871 30131 ft 493 kts 87°
2026-04-25 04:18 -44.59911 167.36662 29497 ft 487 kts 91°
2026-04-25 04:19 -44.60063 167.41363 29035 ft 477 kts 95°
2026-04-25 04:19 -44.60355 167.45902 28449 ft 472 kts 97°
2026-04-25 04:19 -44.60688 167.50409 27875 ft 467 kts 97°
2026-04-25 04:19 -44.61012 167.54934 27287 ft 463 kts 97°
2026-04-25 04:20 -44.61304 167.59418 26720 ft 459 kts 96°
2026-04-25 04:20 -44.61568 167.63869 26159 ft 455 kts 96°
2026-04-25 04:20 -44.61814 167.68289 25601 ft 452 kts 96°
2026-04-25 04:20 -44.62050 167.72683 25037 ft 449 kts 96°
2026-04-25 04:21 -44.62281 167.77041 24474 ft 446 kts 96°
2026-04-25 04:21 -44.62508 167.81341 23902 ft 445 kts 96°
2026-04-25 04:21 -44.62736 167.85672 23242 ft 443 kts 95°
2026-04-25 04:21 -44.62963 167.89968 22677 ft 437 kts 96°
2026-04-25 04:22 -44.63184 167.94203 22123 ft 433 kts 96°
2026-04-25 04:22 -44.63399 167.98361 21567 ft 430 kts 96°
2026-04-25 04:22 -44.63616 168.02571 21057 ft 426 kts 96°
2026-04-25 04:22 -44.63829 168.06703 20550 ft 421 kts 96°
2026-04-25 04:23 -44.64038 168.10744 20043 ft 418 kts 96°
2026-04-25 04:23 -44.64245 168.14825 19497 ft 417 kts 96°
2026-04-25 04:23 -44.64447 168.18848 18919 ft 413 kts 96°
2026-04-25 04:23 -44.64645 168.22821 18371 ft 402 kts 96°
2026-04-25 04:24 -44.64839 168.26713 17859 ft 391 kts 96°
2026-04-25 04:24 -44.65024 168.30445 17610 ft 375 kts 96°
2026-04-25 04:24 -44.65199 168.34014 17458 ft 358 kts 96°
2026-04-25 04:24 -44.65369 168.37476 17333 ft 354 kts 96°
2026-04-25 04:25 -44.65826 168.40789 17087 ft 346 kts 121°
2026-04-25 04:25 -44.67058 168.43657 16840 ft 344 kts 136°
2026-04-25 04:25 -44.68829 168.45806 16535 ft 329 kts 147°
2026-04-25 04:25 -44.70617 168.47753 16110 ft 327 kts 147°
2026-04-25 04:26 -44.72405 168.49694 15765 ft 323 kts 147°
2026-04-25 04:26 -44.74180 168.51635 15364 ft 321 kts 147°
2026-04-25 04:26 -44.75928 168.53572 14973 ft 316 kts 147°
2026-04-25 04:26 -44.77629 168.55438 14627 ft 312 kts 147°
2026-04-25 04:27 -44.79380 168.57293 14089 ft 313 kts 153°
2026-04-25 04:27 -44.81263 168.58783 13731 ft 308 kts 158°
2026-04-25 04:27 -44.83188 168.60159 13315 ft 312 kts 159°
2026-04-25 04:27 -44.85113 168.61518 12914 ft 312 kts 156°
2026-04-25 04:28 -44.86984 168.63047 12551 ft 309 kts 155°
2026-04-25 04:28 -44.88787 168.64726 12152 ft 313 kts 140°
2026-04-25 04:28 -44.89993 168.67308 11787 ft 321 kts 113°
2026-04-25 04:28 -44.90397 168.70370 11471 ft 322 kts 95°
2026-04-25 04:29 -44.90486 168.73492 11046 ft 315 kts 94°
2026-04-25 04:29 -44.90552 168.76548 10702 ft 306 kts 95°
2026-04-25 04:29 -44.90621 168.79518 10400 ft 298 kts 95°
2026-04-25 04:29 -44.90709 168.82388 10061 ft 291 kts 95°
2026-04-25 04:30 -44.90798 168.85157 9948 ft 277 kts 96°
2026-04-25 04:30 -44.90891 168.87849 9745 ft 266 kts 96°
2026-04-25 04:30 -44.90975 168.90531 9358 ft 285 kts 96°
2026-04-25 04:30 -44.91060 168.93308 9105 ft 286 kts 96°
2026-04-25 04:31 -44.91149 168.96101 8783 ft 285 kts 96°
2026-04-25 04:31 -44.91225 168.97979 8553 ft 284 kts 99°
2026-04-25 04:31 -44.91655 169.00600 8241 ft 272 kts 116°
2026-04-25 04:31 -44.92566 169.02839 7862 ft 256 kts 134°
2026-04-25 04:32 -44.93736 169.04566 7627 ft 234 kts 144°
2026-04-25 04:32 -44.95010 169.05770 7571 ft 206 kts 163°
2026-04-25 04:32 -44.96263 169.06445 7538 ft 186 kts 170°
2026-04-25 04:32 -44.97507 169.06816 7583 ft 182 kts 179°
2026-04-25 04:33 -44.98759 169.06909 7491 ft 177 kts 193°
2026-04-25 04:33 -44.99934 169.06562 7281 ft 165 kts 205°
2026-04-25 04:33 -45.00957 169.05919 6912 ft 159 kts 216°
2026-04-25 04:33 -45.01835 169.05023 6492 ft 155 kts 225°
2026-04-25 04:34 -45.02564 169.03907 6087 ft 152 kts 234°
2026-04-25 04:34 -45.03114 169.02640 5659 ft 151 kts 246°
2026-04-25 04:34 -45.03465 169.01243 5249 ft 153 kts 257°
2026-04-25 04:34 -45.03671 168.99567 5241 ft 188 kts 265°
2026-04-25 04:35 -45.03604 168.97683 5233 ft 189 kts 277°
2026-04-25 04:35 -45.03257 168.96027 5134 ft 165 kts 289°
2026-04-25 04:35 -45.02755 168.94638 4710 ft 155 kts 297°
2026-04-25 04:35 -45.02181 168.93399 4210 ft 151 kts 297°
2026-04-25 04:36 -45.01625 168.92122 3665 ft 152 kts 301°
2026-04-25 04:36 -45.01084 168.90885 3405 ft 145 kts 299°
2026-04-25 04:36 -45.00548 168.89607 3269 ft 158 kts 298°
2026-04-25 04:36 -45.00053 168.88231 3025 ft 154 kts 282°
2026-04-25 04:37 -45.00068 168.86792 2852 ft 144 kts 263°
2026-04-25 04:37 -45.00191 168.85408 2686 ft 142 kts 261°
2026-04-25 04:37 -45.00360 168.84039 2483 ft 142 kts 259°
2026-04-25 04:37 -45.00555 168.82705 2382 ft 138 kts 256°
2026-04-25 04:38 -45.00807 168.81354 2150 ft 146 kts 255°
2026-04-25 04:38 -45.01046 168.79921 1909 ft 150 kts 260°
2026-04-25 04:38 -45.01243 168.78457 1602 ft 150 kts 257°
2026-04-25 04:38 -45.01466 168.77054 1373 ft 151 kts 258°
2026-04-25 04:39 -45.01671 168.75642 1189 ft 145 kts 256°
2026-04-25 04:39 -45.01860 168.74466 1166 ft 92 kts 258°
2026-04-25 04:39 -45.01891 168.74260 1168 ft 21 kts 258°
2026-04-25 04:39 -45.01921 168.74142 1165 ft 19 kts 233°
2026-04-25 04:40 -45.01994 168.74083 1163 ft 9 kts 201°
2026-04-25 04:40 -45.02007 168.74076 1162 ft 0 kts 202°
2026-04-25 04:40 -45.02008 168.74075 1162 ft 0 kts 202°
2026-04-25 04:40 -45.02010 168.74074 1162 ft 0 kts 202°
2026-04-25 04:41 -45.02011 168.74073 1163 ft 0 kts 202°
2026-04-25 04:41 -45.02014 168.74072 1161 ft 1 kts 202°
2026-04-25 04:41 -45.02019 168.74069 1161 ft 1 kts 201°
2026-04-25 04:41 -45.02024 168.74067 1163 ft 1 kts 199°
2026-04-25 04:42 -45.02030 168.74064 1162 ft 1 kts 199°
2026-04-25 04:42 -45.02038 168.74060 1162 ft 1 kts 196°
2026-04-25 04:42 -45.02049 168.74057 1162 ft 2 kts 189°
2026-04-25 04:42 -45.02062 168.74057 1161 ft 2 kts 177°
2026-04-25 04:43 -45.02074 168.74061 1162 ft 2 kts 162°
2026-04-25 04:43 -45.02084 168.74070 1162 ft 2 kts 143°
2026-04-25 04:43 -45.02092 168.74081 1162 ft 2 kts 134°
2026-04-25 04:43 -45.02098 168.74093 1162 ft 2 kts 124°
2026-04-25 04:44 -45.02103 168.74106 1161 ft 1 kts 118°
2026-04-25 04:44 -45.02108 168.74118 1162 ft 1 kts 118°
2026-04-25 04:44 -45.02113 168.74130 1162 ft 1 kts 118°
2026-04-25 04:44 -45.02118 168.74143 1162 ft 2 kts 123°
2026-04-25 04:45 -45.02126 168.74156 1162 ft 2 kts 134°
2026-04-25 04:45 -45.02137 168.74167 1161 ft 2 kts 145°
2026-04-25 04:45 -45.02149 168.74175 1161 ft 2 kts 159°
2026-04-25 04:45 -45.02164 168.74181 1162 ft 2 kts 162°
2026-04-25 04:46 -45.02179 168.74182 1161 ft 2 kts 197°
2026-04-25 04:46 -45.02187 168.74167 1160 ft 2 kts 240°
2026-04-25 04:46 -45.02192 168.74151 1162 ft 2 kts 249°
2026-04-25 04:46 -45.02195 168.74139 1163 ft 1 kts 251°
2026-04-25 04:47 -45.02197 168.74128 1163 ft 1 kts 251°
2026-04-25 04:47 -45.02199 168.74120 1163 ft 0 kts 251°